TimePDT,TemperatureF,Dew PointF,Humidity,Sea Level PressureIn,VisibilityMPH,Wind Direction,Wind SpeedMPH,Gust SpeedMPH,PrecipitationIn,Events,Conditions,WindDirDegrees,DateUTC
12:53 AM,23.0,18.0,81,30.25,10.0,Calm,Calm,-,N/A,,Clear,0,2012-10-07 07:53:00
1:53 AM,25.0,17.1,72,30.24,9.0,Calm,Calm,-,N/A,,Clear,0,2012-10-07 08:53:00
2:53 AM,21.0,16.0,81,30.25,10.0,Calm,Calm,-,N/A,,Clear,0,2012-10-07 09:53:00
3:53 AM,21.0,16.0,81,30.24,10.0,SE,3.5,-,N/A,,Clear,140,2012-10-07 10:53:00
4:53 AM,21.0,16.0,81,30.25,10.0,Calm,Calm,-,N/A,,Clear,0,2012-10-07 11:53:00
5:53 AM,23.0,17.1,78,30.25,10.0,Calm,Calm,-,N/A,,Clear,0,2012-10-07 12:53:00
6:53 AM,19.0,15.1,85,30.29,10.0,Calm,Calm,-,N/A,,Clear,0,2012-10-07 13:53:00
7:53 AM,23.0,16.0,74,30.30,10.0,Calm,Calm,-,N/A,,Clear,0,2012-10-07 14:53:00
8:53 AM,32.0,21.0,64,30.30,10.0,Calm,Calm,-,N/A,,Clear,0,2012-10-07 15:53:00
9:53 AM,42.1,19.0,40,30.26,10.0,Calm,Calm,-,N/A,,Clear,0,2012-10-07 16:53:00
10:53 AM,51.1,16.0,25,30.25,10.0,Calm,Calm,-,N/A,,Clear,0,2012-10-07 17:53:00
11:53 AM,55.9,17.1,22,30.21,10.0,Calm,Calm,-,N/A,,Clear,0,2012-10-07 18:53:00
12:53 PM,60.1,17.1,19,30.18,10.0,Variable,3.5,-,N/A,,Clear,0,2012-10-07 19:53:00
1:53 PM,64.0,16.0,16,30.14,10.0,Calm,Calm,-,N/A,,Clear,0,2012-10-07 20:53:00
2:53 PM,64.9,18.0,16,30.12,10.0,Variable,6.9,-,N/A,,Clear,0,2012-10-07 21:53:00
3:53 PM,64.9,19.0,17,30.10,10.0,ENE,10.4,-,N/A,,Clear,70,2012-10-07 22:53:00
4:53 PM,64.0,19.0,18,30.08,10.0,East,8.1,-,N/A,,Clear,100,2012-10-07 23:53:00
5:53 PM,55.9,19.9,25,30.08,10.0,ESE,6.9,-,N/A,,Clear,110,2012-10-08 00:53:00
6:53 PM,53.1,23.0,31,30.10,10.0,Calm,Calm,-,N/A,,Clear,0,2012-10-08 01:53:00
7:53 PM,45.0,23.0,42,30.10,10.0,Calm,Calm,-,N/A,,Clear,0,2012-10-08 02:53:00
8:53 PM,42.1,21.0,43,30.10,10.0,Calm,Calm,-,N/A,,Clear,0,2012-10-08 03:53:00
9:53 PM,34.0,21.9,61,30.10,10.0,Calm,Calm,-,N/A,,Clear,0,2012-10-08 04:53:00
10:53 PM,33.1,19.9,59,30.08,10.0,Calm,Calm,-,N/A,,Clear,0,2012-10-08 05:53:00
11:53 PM,30.9,21.0,67,30.06,10.0,Calm,Calm,-,N/A,,Clear,0,2012-10-08 06:53:00